Regional Weather Roundup
Issued by NWS

Home | Current Version | Previous Version | Text Only | Print | Product List | Glossary On
Versions: 1 2 3 4 5 6 7 8 9 10 11 12 13 14 15 16 17 18 19 20 21 22 23 24 25 26 27 28 29 30 31 32 33 34 35 36 37 38 39 40 41 42 43 44 45 46 47 48 49 50
000
ASUS46 KSEW 252210
RWRWA

WASHINGTON REGIONAL WEATHER ROUNDUP
NATIONAL WEATHER SERVICE SEATTLE WA
300 PM PDT THU MAY 25 2017

NOTE:"FAIR" INDICATES FEW OR NO CLOUDS BELOW 12,000 FEET WITH NO
SIGNIFICANT WEATHER AND/OR OBSTRUCTIONS TO VISIBILITY.

WAZ507-509-555>559-252300-
SEATTLE, TACOMA, EVERETT, AND VICINITY

CITY           SKY/WX    TMP DP  RH WIND       PRES   REMARKS
EVERETT        SUNNY     64  48  56 NW6       29.88F
BOEING FIELD   SUNNY     67  47  48 NW9       29.86F
RENTON         SUNNY     67  48  50 NW10      29.86F
SEATAC AIRPORT MOSUNNY   68  46  45 N10       29.87F
JBLM-MCCHORD   SUNNY     67  49  51 NE13      29.86F
PUYALLUP         N/A     68  48  49 CALM      29.86F
BREMERTON      SUNNY     67  48  50 VRB7      29.86F
JBLM-FT LEWIS  MOSUNNY   67  45  45 N8        29.89F
TACOMA NARROWS MOSUNNY   64  45  49 VRB5      29.87F
$$

WAZ001-503-506-510-514-515-252300-
NORTH INTERIOR

CITY           SKY/WX    TMP DP  RH WIND       PRES   REMARKS
BELLINGHAM     SUNNY     63  46  54 W8        29.87F
FRIDAY HARBOR  SUNNY     67  49  52 N8G17     29.89F
EASTSOUND      SUNNY     61  48  63 NW7       29.89F
PORT ANGELES   SUNNY     64  47  53 E6        29.90S
EDIZ HOOK      NOT AVBL
PORT TOWNSEND  NOT AVBL
NAS WHIDBEY    MOSUNNY   61  48  62 W8        29.92F
ARLINGTON      SUNNY     66  46  48 N9        29.88F
BURLINGTON     SUNNY     64  50  59 NW8G15    29.88S
$$

WAZ020-022-039-040-504-511-512-252300-
SOUTHWEST INTERIOR

CITY           SKY/WX    TMP DP  RH WIND       PRES   REMARKS
SHELTON        SUNNY     71  48  43 VRB7      29.83F
OLYMPIA        SUNNY     68  47  46 NE10G17   29.87F
CHEHALIS       FAIR      70  48  46 NE7G17    29.85F
KELSO          SUNNY     71  47  42 N12G20    29.83F
VANCOUVER      SUNNY     70  48  45 VRB5      29.81F
SCAPPOOSE, OR  SUNNY     71  48  43 N9        29.81F
PORTLAND, OR   MOSUNNY   69  46  43 W10       29.81F
$$

WAZ021-516-517-252300-
WASHINGTON COAST

CITY           SKY/WX    TMP DP  RH WIND       PRES   REMARKS
FORKS          SUNNY     59  50  72 W10       29.90S
HOQUIAM        SUNNY     58  50  75 SW15      29.90F
ASTORIA, OR    SUNNY     61  48  62 NW15      29.88S
$$

WAZ019-023-024-040-567>569-252300-
CASCADE MOUNTAINS AND COLUMBIA GORGE

CITY           SKY/WX    TMP DP  RH WIND       PRES   REMARKS
STAMPEDE PASS  PTSUNNY   58  39  49 VRB5      29.86F
TROUTDALE, OR  SUNNY     69  47  45 W8        29.81F
THE DALLES, OR SUNNY     77  40  26 VRB3      29.77F
$$

WAZ026-027-041>044-520-521-252300-
EAST SLOPES

CITY           SKY/WX    TMP DP  RH WIND       PRES   REMARKS
OMAK           MOSUNNY   73  43  33 S12G22    29.79S
WENATCHEE      MOSUNNY   69  40  34 SE7G18    29.80F
ELLENSBURG     MOSUNNY   72  39  30 VRB5      29.80F
YAKIMA         PTSUNNY   73  41  31 SE10      29.80F
SUNNYSIDE ARPT NOT AVBL
$$

WAZ028-034-035-252300-
COLUMBIA BASIN

CITY           SKY/WX    TMP DP  RH WIND       PRES   REMARKS
EPHRATA        MOSUNNY   67  39  35 SE8G18    29.82F
MOSES LAKE     MOSUNNY   66  41  40 MISG      29.84F
PASCO          CLOUDY    65  42  43 NE7       29.84F
HERMISTON, OR  PTSUNNY   68  40  35 VRB7      29.81F
$$

WAZ036>038-252300-
NORTHEAST WASHINGTON

CITY           SKY/WX    TMP DP  RH WIND       PRES   REMARKS
SPOKANE GEIGER PTSUNNY   62  38  40 W12       29.85S
SPOKANE FELTS  PTSUNNY   64  38  38 VRB6      29.84S
FAIRCHILD AFB  PTSUNNY   61  40  46 W5        29.84F
COEURDALENE,ID PTSUNNY   64  41  42 W12       29.83F
DEER PARK      PTSUNNY   64  36  35 SW10      29.84S
$$

WAZ029>033-252300-
SOUTHEAST WASHINGTON

CITY           SKY/WX    TMP DP  RH WIND       PRES   REMARKS
PULLMAN        CLOUDY    54  40  59 N3        29.87F
LEWISTON, ID   CLOUDY    60  41  49 W6        29.84F
WALLA WALLA    CLOUDY    63  41  44 VRB6      29.84F
PENDLETON, OR  CLOUDY    59  43  55 CALM      29.83F
$$



USA.gov is the U.S. government's official web portal to all federal, state and local government web resources and services.